[[{"header":{"parameterUnit":"m.s-1","parameterCategory":1,"la1":30.2991,"la2":30.254,"lo1":-89.0895,"lo2":-89.0444,"dy":0.0017,"dx":0.0017,"nx":28,"ny":28,"refTime":"2023-09-14T03:00:00:Z","depth":0,"parameterNumber":2,"parameterNumberName":"U-component_of_WINDS"},"data":[0,0,0,0,0,0,0,0,0,0,0,0,0,0,0,0,0,0,0,0,0,0,0,0,0,0,0,0,0,0,0,0,0,0,0,0,0,0,0,0,0,0,0,0,0,0,0,0,0,0,0,0,0,0,0,0,0,0,-2.1688,-2.1688,0,-2.1684,-2.1684,-2.1684,-2.1662,-2.1662,-2.1661,-2.1661,-2.1657,-2.1657,-2.1658,0,0,0,0,0,0,0,0,0,0,0,0,0,-2.1678,-2.1678,-2.1688,-2.1688,-2.1688,-2.1684,-2.1684,-2.1684,-2.1662,-2.1662,-2.1661,-2.1661,-2.1657,-2.1657,-2.1658,0,0,0,0,0,0,0,0,0,0,0,0,0,-2.1679,-2.1679,-2.1688,-2.1677,-2.1676,-2.1684,-2.1684,-2.1684,-2.1663,-2.1662,-2.1661,-2.166,-2.1657,-2.1657,-2.1658,-2.1677,0,0,-2.1659,-2.166,0,0,0,0,0,0,0,0,-2.1679,-2.168,-2.1679,-2.1678,-2.1677,-2.1673,-2.1679,-2.1682,-2.1663,-2.1668,-2.1661,-2.166,-2.1663,-2.1663,-2.1664,-2.1676,-2.1676,-2.1659,-2.166,-2.166,-2.166,0,0,0,0,0,0,0,-2.1679,-2.168,-2.1687,-2.1679,-2.1677,-2.1672,-2.1671,-2.1679,-2.167,-2.1667,-2.1666,-2.1665,-2.1662,-2.1663,-2.1663,-2.1676,-2.1659,-2.166,-2.166,-2.166,-2.1703,-2.1704,0,0,0,0,0,0,-2.1681,-2.168,-2.1687,-2.1687,-2.1676,-2.1673,-2.1672,-2.1675,-2.1669,-2.1668,-2.1666,-2.1664,-2.1663,-2.1663,-2.1663,-2.1684,-2.166,-2.166,-2.1661,-2.1703,-2.1704,-2.1704,0,0,0,0,0,0,-2.168,-2.1681,-2.1687,-2.1683,-2.1683,-2.1674,-2.1677,-2.1675,-2.1676,-2.1669,-2.1667,-2.1669,-2.1662,-2.1662,-2.1673,-2.1684,-2.1661,-2.1661,-2.1702,-2.1703,-2.1704,-2.1726,0,0,0,0,0,0,-2.168,-2.1681,-2.1688,-2.1683,-2.1683,-2.1697,-2.1678,-2.1676,-2.1677,-2.1675,-2.1671,-2.1669,-2.1661,-2.1672,-2.1674,-2.1684,-2.1662,-2.1701,-2.1702,-2.1704,-2.1725,-2.1728,-2.1731,0,0,0,0,0,-2.168,-2.1695,-2.1689,-2.169,-2.1692,-2.1698,-2.1698,-2.1688,-2.1678,-2.1685,-2.168,-2.167,-2.1683,-2.1674,-2.1675,-2.1686,-2.17,-2.1702,-2.1704,-2.1723,-2.1728,-2.1731,0,0,0,0,0,0,-2.1702,-2.1694,-2.1687,-2.1701,-2.17,-2.1694,-2.1702,-2.1693,-2.1695,-2.1693,-2.1681,-2.1681,-2.1693,-2.1691,-2.1681,-2.1703,-2.1689,-2.1692,-2.1704,-2.1708,-2.1711,-2.1711,-2.1662,0,0,0,0,0,-2.1709,-2.1714,-2.1707,-2.172,-2.172,-2.1711,-2.1713,-2.1706,-2.1705,-2.1704,-2.17,-2.1699,-2.1703,-2.1706,-2.1709,-2.1725,-2.1723,-2.1733,-2.1736,-2.1739,-2.174,-2.1748,-2.1751,-2.171,-2.171,-2.171,0,0,-2.1722,-2.1719,-2.1723,-2.1724,-2.1723,-2.1728,-2.1711,-2.1718,-2.1722,-2.1705,-2.1715,-2.1712,-2.171,-2.1723,-2.1729,-2.1722,-2.1752,-2.1741,-2.1743,-2.1743,-2.175,-2.1754,-2.1757,-2.1712,-2.1711,-2.1711,0,0,-2.1749,-2.1748,-2.1757,-2.1756,-2.1754,-2.1748,-2.1751,-2.1746,-2.1743,-2.1753,-2.174,-2.1745,-2.1752,-2.1751,-2.1752,-2.1779,-2.1769,-2.178,-2.1797,-2.1804,-2.1807,-2.181,-2.1818,-2.1822,-2.1782,-2.1782,-2.1782,0,-2.1766,-2.1774,-2.1764,-2.1771,-2.1772,-2.1758,-2.1768,-2.1767,-2.1766,-2.1767,-2.1759,-2.1767,-2.1765,-2.1778,-2.1784,-2.1786,-2.1787,-2.178,-2.1808,-2.181,-2.1813,-2.1821,-2.1824,-2.1784,-2.1783,-2.1783,-2.1783,0,-2.1794,-2.1799,-2.1808,-2.1807,-2.1809,-2.1818,-2.1809,-2.1812,-2.1806,-2.1801,-2.181,-2.1807,-2.1809,-2.1812,-2.1806,-2.1823,-2.1819,-2.181,-2.1795,-2.1818,-2.1825,-2.1828,-2.1785,-2.1785,-2.1785,-2.1784,0,0,-2.1833,-2.1827,-2.183,-2.1829,-2.1826,-2.183,-2.1838,-2.184,-2.1842,-2.1843,-2.1849,-2.1855,-2.1847,-2.1847,-2.1841,-2.1847,-2.1867,-2.1837,-2.1837,-2.1841,-2.1885,-2.1891,-2.1895,-2.1861,-2.1862,-2.1862,-2.1885,0,-2.1858,-2.187,-2.1862,-2.1876,-2.1881,-2.1868,-2.1875,-2.1874,-2.187,-2.1873,-2.1869,-2.1873,-2.1862,-2.1862,-2.1868,-2.1863,-2.1876,-2.1862,-2.1866,-2.1866,-2.1865,-2.1898,-2.1905,-2.1926,-2.1888,-2.1888,-2.1889,0,-2.1888,-2.1888,-2.1903,-2.1898,-2.19,-2.1906,-2.1907,-2.1911,-2.1909,-2.1906,-2.1906,-2.1898,-2.1906,-2.1893,-2.1903,-2.1893,-2.1895,-2.1893,-2.1894,-2.1892,-2.1877,-2.1896,-2.1933,-2.1935,-2.1893,-2.1893,-2.1893,0,-2.1913,-2.1918,-2.1927,-2.1927,-2.1922,-2.1927,-2.1925,-2.1923,-2.1924,-2.1925,-2.1926,-2.1928,-2.1929,-2.1931,-2.1923,-2.1915,-2.1934,-2.192,-2.193,-2.193,-2.1933,-2.1933,-2.1968,-2.1937,-2.1937,-2.1937,-2.1937,0,-2.194,-2.1949,-2.1938,-2.1944,-2.1953,-2.1944,-2.1954,-2.1951,-2.1949,-2.1953,-2.1943,-2.1948,-2.1938,-2.1942,-2.1936,-2.1944,-2.1945,-2.1942,-2.194,-2.1942,-2.1942,-2.1942,-2.1939,-2.1938,-2.1938,-2.1938,-2.1937,0,-2.1969,-2.1963,-2.1971,-2.1966,-2.1965,-2.1972,-2.1968,-2.1972,-2.1968,-2.1974,-2.1975,-2.1968,-2.1971,-2.1965,-2.1968,-2.1964,-2.1975,-2.1972,-2.1975,-2.1974,-2.1983,-2.1982,-2.2018,-2.2022,-2.199,-2.199,-2.1991,0,-2.1986,-2.1992,-2.1988,-2.199,-2.1989,-2.1993,-2.1994,-2.1986,-2.1987,-2.1986,-2.1991,-2.1994,-2.1995,-2.2002,-2.1997,-2.1999,-2.1995,-2.2007,-2.1995,-2.1996,-2.1993,-2.1992,-2.1992,-2.2009,-2.201,-2.201,-2.201,0,-2.2016,-2.2012,-2.2015,-2.2016,-2.2018,-2.2018,-2.2018,-2.202,-2.2011,-2.2014,-2.2017,-2.2019,-2.2022,-2.2024,-2.2025,-2.2023,-2.2015,-2.2015,-2.2017,-2.2018,-2.2019,-2.2017,-2.198,-2.2013,-2.2013,-2.2013,-2.2013,-2.2012,-2.2039,-2.2043,-2.2041,-2.2043,-2.2042,-2.2042,-2.2046,-2.2042,-2.2045,-2.2046,-2.2042,-2.2046,-2.2044,-2.2045,-2.2044,-2.2047,-2.2041,-2.2045,-2.2045,-2.2046,-2.2047,-2.202,-2.2048,-2.2047,-2.2047,-2.2047,-2.2047,0,-2.2067,-2.2064,-2.2067,-2.2067,-2.2069,-2.2062,-2.2061,-2.2063,-2.2067,-2.2066,-2.2068,-2.2072,-2.2074,-2.207,-2.2072,-2.2075,-2.2071,-2.2076,-2.2074,-2.2074,-2.2053,-2.205,-2.2079,-2.2079,-2.2079,-2.2079,-2.2079,-2.2079,-2.2082,-2.2089,-2.2085,-2.2092,-2.209,-2.2093,-2.2094,-2.2094,-2.2093,-2.2097,-2.2099,-2.2096,-2.2094,-2.2095,-2.2097,-2.2096,-2.2097,-2.2102,-2.2099,-2.2079,-2.2076,-2.2073,-2.207,-2.2103,-2.2103,-2.212,-2.212,-2.212]},{"header":{"parameterUnit":"m.s-1","parameterCategory":1,"la1":30.2991,"la2":30.254,"lo1":-89.0895,"lo2":-89.0444,"dy":0.0017,"dx":0.0017,"nx":28,"ny":28,"refTime":"2023-09-14T03:00:00:Z","depth":0,"parameterNumber":3,"parameterNumberName":"V-component_of_WINDS"},"data":[0,0,0,0,0,0,0,0,0,0,0,0,0,0,0,0,0,0,0,0,0,0,0,0,0,0,0,0,0,0,0,0,0,0,0,0,0,0,0,0,0,0,0,0,0,0,0,0,0,0,0,0,0,0,0,0,0,0,-0.8547,-0.8548,0,-0.8648,-0.865,-0.8651,-0.8689,-0.8689,-0.8688,-0.8688,-0.879,-0.8793,-0.8796,0,0,0,0,0,0,0,0,0,0,0,0,0,-0.8385,-0.8388,-0.8547,-0.8548,-0.8549,-0.8648,-0.865,-0.8651,-0.8689,-0.8689,-0.8688,-0.8688,-0.8789,-0.8793,-0.8797,0,0,0,0,0,0,0,0,0,0,0,0,0,-0.8468,-0.8389,-0.8547,-0.858,-0.8584,-0.8648,-0.865,-0.8651,-0.8689,-0.8689,-0.8688,-0.8688,-0.8788,-0.8793,-0.8797,-0.8834,0,0,-0.8811,-0.8813,0,0,0,0,0,0,0,0,-0.8463,-0.8474,-0.8574,-0.8578,-0.8583,-0.8656,-0.863,-0.8713,-0.8689,-0.8649,-0.8688,-0.8688,-0.8746,-0.8754,-0.8774,-0.8839,-0.8843,-0.8811,-0.8814,-0.8816,-0.8817,0,0,0,0,0,0,0,-0.8457,-0.847,-0.8587,-0.8575,-0.8581,-0.859,-0.8601,-0.8646,-0.8699,-0.8653,-0.8656,-0.8667,-0.8748,-0.8769,-0.8776,-0.8845,-0.8811,-0.8815,-0.8818,-0.882,-0.8946,-0.8947,0,0,0,0,0,0,-0.8446,-0.8465,-0.8584,-0.859,-0.8521,-0.8593,-0.8606,-0.8633,-0.8698,-0.8708,-0.8668,-0.8669,-0.8762,-0.8771,-0.878,-0.8829,-0.8816,-0.882,-0.8823,-0.8946,-0.8947,-0.8947,0,0,0,0,0,0,-0.8443,-0.8456,-0.858,-0.8528,-0.8545,-0.8597,-0.8626,-0.8635,-0.8656,-0.871,-0.8719,-0.868,-0.8762,-0.8774,-0.8821,-0.8833,-0.8822,-0.8826,-0.8945,-0.8946,-0.8947,-0.8925,0,0,0,0,0,0,-0.8438,-0.8455,-0.847,-0.8528,-0.8547,-0.8619,-0.8627,-0.8637,-0.8664,-0.8666,-0.8724,-0.8733,-0.8762,-0.8814,-0.8825,-0.8839,-0.883,-0.8944,-0.8946,-0.8947,-0.8925,-0.8925,-0.8925,0,0,0,0,0,-0.8432,-0.8459,-0.847,-0.8484,-0.8567,-0.8619,-0.863,-0.8664,-0.8665,-0.868,-0.8715,-0.8731,-0.883,-0.8818,-0.8832,-0.8846,-0.8944,-0.8945,-0.8947,-0.8925,-0.8925,-0.8925,0,0,0,0,0,0,-0.8399,-0.8467,-0.848,-0.8527,-0.8567,-0.8626,-0.8646,-0.8663,-0.8704,-0.8704,-0.8745,-0.8757,-0.8801,-0.8828,-0.8815,-0.8886,-0.8888,-0.8892,-0.8867,-0.8867,-0.8868,-0.886,-0.8834,0,0,0,0,0,-0.8398,-0.8435,-0.8492,-0.8528,-0.8547,-0.8593,-0.8617,-0.864,-0.8683,-0.87,-0.8738,-0.8779,-0.8819,-0.8845,-0.8885,-0.8929,-0.8943,-0.8946,-0.8946,-0.8946,-0.8949,-0.8976,-0.8978,-0.8952,-0.8952,-0.8952,0,0,-0.8394,-0.8436,-0.8457,-0.8522,-0.8556,-0.8594,-0.8607,-0.8646,-0.8674,-0.8706,-0.8753,-0.8782,-0.883,-0.8876,-0.8899,-0.8901,-0.896,-0.8948,-0.8948,-0.8951,-0.8978,-0.898,-0.8982,-0.8953,-0.8953,-0.8953,0,0,-0.8408,-0.8443,-0.8477,-0.8511,-0.8563,-0.8593,-0.8601,-0.8657,-0.8678,-0.8726,-0.8751,-0.8785,-0.8853,-0.8887,-0.8913,-0.8941,-0.8957,-0.8952,-0.8953,-0.8979,-0.8981,-0.8983,-0.8993,-0.8996,-0.8955,-0.8955,-0.8955,0,-0.8397,-0.8456,-0.8493,-0.8531,-0.8559,-0.859,-0.8625,-0.8656,-0.8717,-0.8736,-0.8738,-0.8825,-0.886,-0.8914,-0.8921,-0.8941,-0.8952,-0.8946,-0.8978,-0.898,-0.8982,-0.8993,-0.8997,-0.8954,-0.8955,-0.8955,-0.8955,0,-0.8441,-0.8481,-0.8502,-0.8562,-0.8592,-0.8628,-0.8671,-0.8697,-0.8718,-0.8748,-0.8797,-0.8839,-0.8889,-0.8904,-0.8924,-0.8962,-0.8962,-0.897,-0.8972,-0.8983,-0.8994,-0.8998,-0.8953,-0.8953,-0.8954,-0.8954,0,0,-0.8436,-0.8516,-0.8524,-0.8552,-0.8611,-0.8642,-0.868,-0.873,-0.8752,-0.8793,-0.8826,-0.8884,-0.8893,-0.8922,-0.8946,-0.8968,-0.8988,-0.8974,-0.8976,-0.8976,-0.9033,-0.9027,-0.9031,-0.9,-0.9001,-0.9001,-0.903,0,-0.8458,-0.8528,-0.8562,-0.8617,-0.8655,-0.8685,-0.8719,-0.8758,-0.8788,-0.8824,-0.8856,-0.8897,-0.8904,-0.8923,-0.8946,-0.8981,-0.9,-0.8979,-0.9031,-0.9032,-0.9018,-0.9036,-0.903,-0.9054,-0.9034,-0.9034,-0.9035,0,-0.8493,-0.8535,-0.8594,-0.865,-0.8667,-0.8696,-0.8744,-0.8779,-0.8825,-0.8844,-0.8878,-0.8902,-0.8943,-0.8942,-0.9,-0.8985,-0.9008,-0.9028,-0.903,-0.9036,-0.9034,-0.9043,-0.9063,-0.9067,-0.9042,-0.9041,-0.9041,0,-0.8484,-0.8556,-0.86,-0.8623,-0.8689,-0.8709,-0.8738,-0.8783,-0.8811,-0.8853,-0.8872,-0.8918,-0.8943,-0.8978,-0.9014,-0.901,-0.9068,-0.907,-0.9086,-0.9085,-0.9097,-0.9096,-0.9121,-0.9111,-0.9111,-0.9111,-0.9111,0,-0.8505,-0.854,-0.8598,-0.8625,-0.8665,-0.8705,-0.8743,-0.8774,-0.8814,-0.8848,-0.8877,-0.8908,-0.8954,-0.899,-0.9019,-0.9062,-0.9073,-0.9091,-0.9098,-0.9088,-0.9086,-0.9104,-0.9103,-0.9112,-0.9112,-0.9112,-0.9111,0,-0.8502,-0.8542,-0.8593,-0.8652,-0.8668,-0.8695,-0.8745,-0.8773,-0.8804,-0.8847,-0.8859,-0.8908,-0.8953,-0.8992,-0.9051,-0.907,-0.9115,-0.9123,-0.91,-0.9104,-0.9117,-0.9116,-0.9155,-0.9162,-0.9147,-0.9147,-0.9147,0,-0.8513,-0.8541,-0.8603,-0.8629,-0.8657,-0.8697,-0.8726,-0.8766,-0.8794,-0.885,-0.8871,-0.8918,-0.8958,-0.9028,-0.9069,-0.9114,-0.9124,-0.9135,-0.9131,-0.9121,-0.9125,-0.9123,-0.9127,-0.9135,-0.9135,-0.9135,-0.9135,0,-0.8529,-0.8548,-0.8588,-0.8636,-0.867,-0.8709,-0.875,-0.8768,-0.8816,-0.8847,-0.8894,-0.8925,-0.8986,-0.9032,-0.9083,-0.9112,-0.9131,-0.9136,-0.9142,-0.9133,-0.9118,-0.9127,-0.91,-0.9135,-0.9135,-0.9135,-0.9135,-0.9135,-0.8534,-0.856,-0.8609,-0.8653,-0.8688,-0.8725,-0.8755,-0.879,-0.883,-0.8883,-0.8904,-0.8952,-0.8998,-0.9067,-0.9097,-0.9135,-0.9138,-0.9146,-0.9149,-0.915,-0.9149,-0.9112,-0.9144,-0.9144,-0.9144,-0.9144,-0.9144,0,-0.8551,-0.8584,-0.8625,-0.8681,-0.8716,-0.8732,-0.8778,-0.8806,-0.8848,-0.8889,-0.8929,-0.8983,-0.9028,-0.9073,-0.9121,-0.9142,-0.9153,-0.9154,-0.9153,-0.9159,-0.9143,-0.9133,-0.9145,-0.9145,-0.9145,-0.9145,-0.9145,-0.9145,-0.8565,-0.8611,-0.8635,-0.8699,-0.8731,-0.8779,-0.8804,-0.8838,-0.8872,-0.8931,-0.8969,-0.8998,-0.9041,-0.9093,-0.9135,-0.9147,-0.9164,-0.9162,-0.9176,-0.9161,-0.916,-0.916,-0.9151,-0.9165,-0.9165,-0.9189,-0.919,-0.919]}]]